Seabourn Odyssey — C6XC6 — position and weather

sailwx.info

Track history (hours):
 
Tides and Currents Weather Stations Pressure Air Temp Water Temp Dewpoint Dewpoint Depression Visibility Wind Speed Wind Dir Waves Ship Positions

Seabourn Odyssey

Last reported at 2017-Jul-26 05:33 UTC. Time now 2017-Jul-27 00:35 UTC.
Position N 37°50' E 015°49'.

Length 198 m; draft 6.7 m.

Type: Ship. MMSI: 309416000.

Date/timePositionNaut miles runAvg speedWind from/ knotsBaromVisibWave heightAir tempDewpointWater temp
2017-Jul-26 05:33N 37°50' E 015°49'317.7
2017-Jul-26 05:21N 37°51' E 015°44'1214.5
2017-Jul-26 04:33N 37°59' E 015°33'117.6
2017-Jul-26 04:30N 37°59' E 015°33'918.4
2017-Jul-26 04:00N 38°08' E 015°35'1012.5
2017-Jul-26 03:12N 38°17' E 015°41'210.4
2017-Jul-26 03:00N 38°19' E 015°40'510.4
2017-Jul-26 02:30N 38°24' E 015°38'314 6.3
2017-Jul-24 01:02N 42°10' E 010°53'7613.0
2017-Jul-23 19:14N 43°20' E 010°13'313.5
2017-Jul-23 19:01N 43°22' E 010°11'611.5
2017-Jul-23 18:31N 43°28' E 010°09'611.1
2017-Jul-23 18:00N 43°32' E 010°14'3 4.8
2017-Jul-23 17:26N 43°33' E 010°18'0 0.0
2017-Jul-23 16:59N 43°33' E 010°18'0 0.0
2017-Jul-23 16:26N 43°33' E 010°18'0 0.0
2017-Jul-23 15:56N 43°33' E 010°18'0 0.0
2017-Jul-23 15:26N 43°33' E 010°18'0 0.0
2017-Jul-23 14:59N 43°33' E 010°18'0 0.0
2017-Jul-23 14:23N 43°33' E 010°18'0 0.0
2017-Jul-23 13:53N 43°33' E 010°18'0 0.0
2017-Jul-23 13:29N 43°33' E 010°18'0 0.0
2017-Jul-23 12:59N 43°33' E 010°18'0 0.0
2017-Jul-23 12:29N 43°33' E 010°18'0 0.0
2017-Jul-23 11:58N 43°33' E 010°18'0 0.0
2017-Jul-23 11:28N 43°33' E 010°18'0 0.0
2017-Jul-23 10:58N 43°33' E 010°18'0 0.0
2017-Jul-23 10:25N 43°33' E 010°18'0 0.0
2017-Jul-23 09:58N 43°33' E 010°18'0 0.0
2017-Jul-23 09:28N 43°33' E 010°18'0 0.0
2017-Jul-23 08:58N 43°33' E 010°18'0 0.0
2017-Jul-23 08:28N 43°33' E 010°18'0 0.0
2017-Jul-23 07:58N 43°33' E 010°18'0 0.0
2017-Jul-23 07:28N 43°33' E 010°18'0 0.0
2017-Jul-23 06:52N 43°33' E 010°18'0 0.0
2017-Jul-23 06:28N 43°33' E 010°18'0 0.0
2017-Jul-23 05:58N 43°33' E 010°18'0 0.0
2017-Jul-23 05:28N 43°33' E 010°18'0 0.0
2017-Jul-23 05:00N 43°33' E 010°18'1 1.5
2017-Jul-23 04:30N 43°32' E 010°17'3 5.3
2017-Jul-23 04:01N 43°31' E 010°14'2 5.0
2017-Jul-23 03:31N 43°29' E 010°12'2 4.7
2017-Jul-23 03:00N 43°28' E 010°09'3 5.1
2017-Jul-23 02:31N 43°30' E 010°07'3 5.9
2017-Jul-23 02:00N 43°30' E 010°03'3 5.3
2017-Jul-23 01:30N 43°30' E 009°59'3 5.0
2017-Jul-23 01:01N 43°32' E 009°56'2 4.9
2017-Jul-23 00:31N 43°32' E 009°53'3 5.0
2017-Jul-23 00:01N 43°33' E 009°50'3 5.0
2017-Jul-22 23:31N 43°34' E 009°46'3 5.1
2017-Jul-22 23:01N 43°34' E 009°43'3 6.3
2017-Jul-22 22:30N 43°35' E 009°39'3 6.5
2017-Jul-22 22:00N 43°38' E 009°37'3 6.5
2017-Jul-22 21:30N 43°41' E 009°35'3 6.6
2017-Jul-22 21:01N 43°44' E 009°34'3 6.7
2017-Jul-22 20:31N 43°48' E 009°32'3 6.6
2017-Jul-22 20:01N 43°51' E 009°30'3 6.7
2017-Jul-22 19:31N 43°54' E 009°28'3 6.9
2017-Jul-22 19:00N 43°57' E 009°27'3 6.8
2017-Jul-22 18:30N 44°00' E 009°25'3 6.7
2017-Jul-22 18:01N 44°03' E 009°23'3 6.8
2017-Jul-22 17:30N 44°06' E 009°21'3 6.7
2017-Jul-22 17:00N 44°09' E 009°19'3 6.7
2017-Jul-22 16:30N 44°13' E 009°18'4 7.6
2017-Jul-22 16:01N 44°16' E 009°16'3 5.8
2017-Jul-22 15:31N 44°19' E 009°14'0 0.1
2017-Jul-22 14:58N 44°19' E 009°14'0 0.0
2017-Jul-22 13:58N 44°19' E 009°14'0 0.0
2017-Jul-22 13:25N 44°19' E 009°14'0 0.0
2017-Jul-22 12:55N 44°19' E 009°14'0 0.0
2017-Jul-22 12:28N 44°19' E 009°14'0 0.0
2017-Jul-22 11:58N 44°19' E 009°14'0 0.0
2017-Jul-22 11:28N 44°19' E 009°14'0 0.0
2017-Jul-22 10:58N 44°19' E 009°14'0 0.0
2017-Jul-22 10:28N 44°19' E 009°14'0 0.0
2017-Jul-22 09:52N 44°19' E 009°14'0 0.0
2017-Jul-22 09:19N 44°19' E 009°14'0 0.0
2017-Jul-22 08:55N 44°19' E 009°14'0 0.0
2017-Jul-22 08:25N 44°19' E 009°14'0 0.0
2017-Jul-22 07:58N 44°19' E 009°14'0 0.0
2017-Jul-22 07:25N 44°19' E 009°14'0 0.0
2017-Jul-22 06:58N 44°19' E 009°14'0 0.0
2017-Jul-22 06:28N 44°19' E 009°14'0 0.0
2017-Jul-22 05:52N 44°19' E 009°14'3 2.1
2017-Jul-22 04:17N 44°16' E 009°17'1 4.8
2017-Jul-22 04:01N 44°15' E 009°18'2 4.7
2017-Jul-22 03:31N 44°13' E 009°17'2 4.9
2017-Jul-22 03:01N 44°11' E 009°15'3 5.1
2017-Jul-22 02:31N 44°09' E 009°13'3 5.1
2017-Jul-22 02:01N 44°07' E 009°10'3 5.1
2017-Jul-22 01:31N 44°05' E 009°08'3 5.7
2017-Jul-22 01:01N 44°03' E 009°05'3 6.7
2017-Jul-22 00:31N 44°01' E 009°02'4 7.1
2017-Jul-22 00:01N 43°58' E 008°59'3 6.9
2017-Jul-21 23:30N 43°55' E 008°57'3 6.8
2017-Jul-21 23:01N 43°53' E 008°53'3 6.8
2017-Jul-21 22:31N 43°52' E 008°49'3 6.8
2017-Jul-21 22:00N 43°50' E 008°44'3 6.9
2017-Jul-21 21:30N 43°49' E 008°40'3 7.0
2017-Jul-21 21:01N 43°47' E 008°36'4 6.9
2017-Jul-21 20:30N 43°46' E 008°31'3 6.7
2017-Jul-21 20:00N 43°44' E 008°27'4 6.8
2017-Jul-21 19:29N 43°42' E 008°23'5 6.8
2017-Jul-21 18:41N 43°40' E 008°16'22 1.6
2017-Jul-21 04:56N 43°48' E 007°47'1411.0
2017-Jul-21 03:41N 43°41' E 008°04'4 8.4
2017-Jul-21 03:14N 43°38' E 008°07'2 7.8
2017-Jul-21 02:57N 43°36' E 008°08'9 6.8
2017-Jul-21 01:37N 43°28' E 008°01'1 7.2
2017-Jul-21 01:27N 43°28' E 007°60'3 7.4
2017-Jul-21 01:00N 43°28' E 007°55'4 7.3
2017-Jul-21 00:30N 43°28' E 007°50'4 7.2
2017-Jul-21 00:00N 43°28' E 007°45'4 7.1
2017-Jul-20 23:30N 43°28' E 007°41'4 8.1
2017-Jul-20 23:00N 43°32' E 007°37'4 8.1
2017-Jul-20 22:30N 43°35' E 007°34'5 8.2
2017-Jul-20 21:55N 43°39' E 007°31'4 8.9
2017-Jul-20 21:30N 43°42' E 007°28'3 0.8
2017-Jul-20 18:28N 43°44' E 007°26'6 0.4
2017-Jul-20 04:09N 43°39' E 007°24'1 7.0
2017-Jul-20 04:00N 43°38' E 007°23'3 7.0
2017-Jul-20 03:31N 43°35' E 007°20'4 7.1
2017-Jul-20 03:00N 43°32' E 007°17'3 7.0
2017-Jul-20 02:31N 43°30' E 007°13'3 6.8
2017-Jul-20 02:01N 43°27' E 007°10'4 7.0
2017-Jul-20 01:30N 43°25' E 007°07'4 7.4
2017-Jul-20 01:01N 43°22' E 007°04'4 7.2
2017-Jul-20 00:30N 43°19' E 007°01'4 7.2
2017-Jul-20 00:00N 43°16' E 006°58'4 7.4
2017-Jul-19 23:30N 43°13' E 006°55'14 7.4
2017-Jul-19 21:37N 43°02' E 006°43'1 7.4
2017-Jul-19 21:30N 43°02' E 006°42'4 7.2
2017-Jul-19 21:00N 42°59' E 006°39'3 7.1
2017-Jul-19 20:30N 42°56' E 006°37'3 6.7
2017-Jul-19 20:00N 42°54' E 006°33'4 7.1
2017-Jul-19 19:30N 42°54' E 006°28'3 6.9
2017-Jul-19 19:01N 42°53' E 006°23'4 7.7
2017-Jul-19 18:30N 42°53' E 006°18'610.4
2017-Jul-19 17:57N 42°53' E 006°10'611.6
2017-Jul-19 17:26N 42°54' E 006°02'811.2
2017-Jul-19 16:46N 42°57' E 005°52'311.2
2017-Jul-19 16:30N 42°57' E 005°49'510.9
2017-Jul-19 16:00N 43°01' E 005°43'510.4
2017-Jul-19 15:30N 43°06' E 005°46'2 2.8
2017-Jul-19 14:56N 43°06' E 005°48'0 0.0
2017-Jul-19 14:30N 43°06' E 005°48'0 0.0
2017-Jul-19 14:00N 43°06' E 005°48'0 0.1
2017-Jul-19 13:30N 43°06' E 005°48'0 0.0
2017-Jul-19 12:41N 43°06' E 005°48'0 0.0
2017-Jul-19 09:04N 43°06' E 005°48'0 0.0
2017-Jul-19 08:01N 43°06' E 005°48'0 0.0
2017-Jul-19 05:23N 43°06' E 005°48'1 1.8
2017-Jul-19 05:00N 43°06' E 005°47'611.6
2017-Jul-19 04:30N 43°05' E 005°39'714.1
2017-Jul-19 04:00N 43°02' E 005°30'713.8
2017-Jul-19 03:30N 43°00' E 005°21'713.7
2017-Jul-19 03:00N 42°59' E 005°12'713.2
2017-Jul-19 02:30N 42°59' E 005°03'713.8
2017-Jul-19 02:00N 43°02' E 004°54'713.6
2017-Jul-19 01:30N 43°04' E 004°45'713.5
2017-Jul-19 01:00N 43°06' E 004°37'713.8
2017-Jul-19 00:30N 43°08' E 004°28'713.8
2017-Jul-19 00:00N 43°10' E 004°19'713.6
2017-Jul-18 23:30N 43°13' E 004°10'813.7
2017-Jul-18 22:57N 43°15' E 003°60'613.5
2017-Jul-18 22:30N 43°17' E 003°52'612.5
2017-Jul-18 22:00N 43°22' E 003°47'4 7.3
2017-Jul-18 21:31N 43°24' E 003°42'0 0.8
2017-Jul-18 21:00N 43°24' E 003°42'0 0.0
2017-Jul-18 20:28N 43°24' E 003°42'0 0.0
2017-Jul-18 19:58N 43°24' E 003°42'0 0.0
2017-Jul-18 19:28N 43°24' E 003°42'0 0.0
2017-Jul-18 19:00N 43°24' E 003°42'0 0.0
2017-Jul-18 18:30N 43°24' E 003°42'0 0.0
2017-Jul-18 18:00N 43°24' E 003°42'0 0.0
2017-Jul-18 17:29N 43°24' E 003°42'0 0.0
2017-Jul-18 16:59N 43°24' E 003°42'0 0.0
2017-Jul-18 16:29N 43°24' E 003°42'0 0.0
2017-Jul-18 15:59N 43°24' E 003°42'0 0.0
2017-Jul-18 15:29N 43°24' E 003°42'0 0.0
2017-Jul-18 14:59N 43°24' E 003°42'0 0.0
2017-Jul-18 13:50N 43°24' E 003°42'0 0.0
2017-Jul-18 13:29N 43°24' E 003°42'0 0.0
2017-Jul-18 12:59N 43°24' E 003°42'0 0.0
2017-Jul-18 11:02N 43°24' E 003°42'3 0.5
2017-Jul-18 05:05N 43°23' E 003°46'1 7.4
2017-Jul-18 05:00N 43°23' E 003°46'6 7.4
2017-Jul-18 04:15N 43°18' E 003°51'7 6.2
2017-Jul-18 03:06N 43°12' E 003°54'2 6.7
2017-Jul-18 02:50N 43°10' E 003°54'12 6.7
2017-Jul-18 01:06N 42°58' E 003°53'2 6.7
2017-Jul-18 00:50N 42°57' E 003°54'26 7.0
2017-Jul-17 21:07N 42°31' E 003°48'2 7.4
2017-Jul-17 20:51N 42°29' E 003°48'13 7.4
2017-Jul-17 19:07N 42°16' E 003°46'2 7.1
2017-Jul-17 18:51N 42°14' E 003°46'4 9.8
2017-Jul-17 18:28N 42°11' E 003°43'611.2
2017-Jul-17 17:58N 42°11' E 003°36'510.8
2017-Jul-17 17:29N 42°11' E 003°28'510.3
2017-Jul-17 17:00N 42°11' E 003°22'7 0.5
2017-Jul-17 03:10N 42°05' E 003°19'2 6.9
2017-Jul-17 02:54N 42°03' E 003°20'12 7.2
2017-Jul-17 01:10N 41°51' E 003°26'2 7.8
2017-Jul-17 00:55N 41°49' E 003°26'12 6.9
2017-Jul-16 23:10N 41°38' E 003°21'2 7.9
2017-Jul-16 22:58N 41°37' E 003°19'8 8.1
2017-Jul-16 22:00N 41°32' E 003°11'7 8.0
2017-Jul-16 21:11N 41°28' E 003°05'3 7.8
2017-Jul-16 20:50N 41°26' E 003°02'4 7.9
2017-Jul-16 20:22N 41°24' E 002°57'3 7.4
2017-Jul-16 19:55N 41°22' E 002°54'3 7.2
2017-Jul-16 19:27N 41°19' E 002°52'3 7.2
2017-Jul-16 19:00N 41°19' E 002°47'3 7.0
2017-Jul-16 18:30N 41°19' E 002°43'510.1
2017-Jul-16 18:00N 41°18' E 002°36'611.6
2017-Jul-16 17:30N 41°18' E 002°28'611.2
2017-Jul-16 17:00N 41°17' E 002°21'510.3
2017-Jul-16 16:30N 41°19' E 002°14'4 8.0
2017-Jul-16 16:00N 41°22' E 002°11'  
Track history (hours):
 
Tides and Currents Weather Stations Pressure Air Temp Water Temp Dewpoint Dewpoint Depression Visibility Wind Speed Wind Dir Waves Ship Positions

Seabourn Odyssey

Last reported at 2017-Jul-26 05:33 UTC. Time now 2017-Jul-27 00:35 UTC.
Position N 37°50' E 015°49'.

Length 198 m; draft 6.7 m.

Type: Ship. MMSI: 309416000.

Date/timePositionNaut miles runAvg speedWind from/ knotsBaromVisibWave heightAir tempDewpointWater temp
2017-Jul-26 05:33N 37°50' E 015°49'317.7
2017-Jul-26 05:21N 37°51' E 015°44'1214.5
2017-Jul-26 04:33N 37°59' E 015°33'117.6
2017-Jul-26 04:30N 37°59' E 015°33'918.4
2017-Jul-26 04:00N 38°08' E 015°35'1012.5
2017-Jul-26 03:12N 38°17' E 015°41'210.4
2017-Jul-26 03:00N 38°19' E 015°40'510.4
2017-Jul-26 02:30N 38°24' E 015°38'314 6.3
2017-Jul-24 01:02N 42°10' E 010°53'7613.0
2017-Jul-23 19:14N 43°20' E 010°13'313.5
2017-Jul-23 19:01N 43°22' E 010°11'611.5
2017-Jul-23 18:31N 43°28' E 010°09'611.1
2017-Jul-23 18:00N 43°32' E 010°14'3 4.8
2017-Jul-23 17:26N 43°33' E 010°18'0 0.0
2017-Jul-23 16:59N 43°33' E 010°18'0 0.0
2017-Jul-23 16:26N 43°33' E 010°18'0 0.0
2017-Jul-23 15:56N 43°33' E 010°18'0 0.0
2017-Jul-23 15:26N 43°33' E 010°18'0 0.0
2017-Jul-23 14:59N 43°33' E 010°18'0 0.0
2017-Jul-23 14:23N 43°33' E 010°18'0 0.0
2017-Jul-23 13:53N 43°33' E 010°18'0 0.0
2017-Jul-23 13:29N 43°33' E 010°18'0 0.0
2017-Jul-23 12:59N 43°33' E 010°18'0 0.0
2017-Jul-23 12:29N 43°33' E 010°18'0 0.0
2017-Jul-23 11:58N 43°33' E 010°18'0 0.0
2017-Jul-23 11:28N 43°33' E 010°18'0 0.0
2017-Jul-23 10:58N 43°33' E 010°18'0 0.0
2017-Jul-23 10:25N 43°33' E 010°18'0 0.0
2017-Jul-23 09:58N 43°33' E 010°18'0 0.0
2017-Jul-23 09:28N 43°33' E 010°18'0 0.0
2017-Jul-23 08:58N 43°33' E 010°18'0 0.0
2017-Jul-23 08:28N 43°33' E 010°18'0 0.0
2017-Jul-23 07:58N 43°33' E 010°18'0 0.0
2017-Jul-23 07:28N 43°33' E 010°18'0 0.0
2017-Jul-23 06:52N 43°33' E 010°18'0 0.0
2017-Jul-23 06:28N 43°33' E 010°18'0 0.0
2017-Jul-23 05:58N 43°33' E 010°18'0 0.0
2017-Jul-23 05:28N 43°33' E 010°18'0 0.0
2017-Jul-23 05:00N 43°33' E 010°18'1 1.5
2017-Jul-23 04:30N 43°32' E 010°17'3 5.3
2017-Jul-23 04:01N 43°31' E 010°14'2 5.0
2017-Jul-23 03:31N 43°29' E 010°12'2 4.7
2017-Jul-23 03:00N 43°28' E 010°09'3 5.1
2017-Jul-23 02:31N 43°30' E 010°07'3 5.9
2017-Jul-23 02:00N 43°30' E 010°03'3 5.3
2017-Jul-23 01:30N 43°30' E 009°59'3 5.0
2017-Jul-23 01:01N 43°32' E 009°56'2 4.9
2017-Jul-23 00:31N 43°32' E 009°53'3 5.0
2017-Jul-23 00:01N 43°33' E 009°50'3 5.0
2017-Jul-22 23:31N 43°34' E 009°46'3 5.1
2017-Jul-22 23:01N 43°34' E 009°43'3 6.3
2017-Jul-22 22:30N 43°35' E 009°39'3 6.5
2017-Jul-22 22:00N 43°38' E 009°37'3 6.5
2017-Jul-22 21:30N 43°41' E 009°35'3 6.6
2017-Jul-22 21:01N 43°44' E 009°34'3 6.7
2017-Jul-22 20:31N 43°48' E 009°32'3 6.6
2017-Jul-22 20:01N 43°51' E 009°30'3 6.7
2017-Jul-22 19:31N 43°54' E 009°28'3 6.9
2017-Jul-22 19:00N 43°57' E 009°27'3 6.8
2017-Jul-22 18:30N 44°00' E 009°25'3 6.7
2017-Jul-22 18:01N 44°03' E 009°23'3 6.8
2017-Jul-22 17:30N 44°06' E 009°21'3 6.7
2017-Jul-22 17:00N 44°09' E 009°19'3 6.7
2017-Jul-22 16:30N 44°13' E 009°18'4 7.6
2017-Jul-22 16:01N 44°16' E 009°16'3 5.8
2017-Jul-22 15:31N 44°19' E 009°14'0 0.1
2017-Jul-22 14:58N 44°19' E 009°14'0 0.0
2017-Jul-22 13:58N 44°19' E 009°14'0 0.0
2017-Jul-22 13:25N 44°19' E 009°14'0 0.0
2017-Jul-22 12:55N 44°19' E 009°14'0 0.0
2017-Jul-22 12:28N 44°19' E 009°14'0 0.0
2017-Jul-22 11:58N 44°19' E 009°14'0 0.0
2017-Jul-22 11:28N 44°19' E 009°14'0 0.0
2017-Jul-22 10:58N 44°19' E 009°14'0 0.0
2017-Jul-22 10:28N 44°19' E 009°14'0 0.0
2017-Jul-22 09:52N 44°19' E 009°14'0 0.0
2017-Jul-22 09:19N 44°19' E 009°14'0 0.0
2017-Jul-22 08:55N 44°19' E 009°14'0 0.0
2017-Jul-22 08:25N 44°19' E 009°14'0 0.0
2017-Jul-22 07:58N 44°19' E 009°14'0 0.0
2017-Jul-22 07:25N 44°19' E 009°14'0 0.0
2017-Jul-22 06:58N 44°19' E 009°14'0 0.0
2017-Jul-22 06:28N 44°19' E 009°14'0 0.0
2017-Jul-22 05:52N 44°19' E 009°14'3 2.1
2017-Jul-22 04:17N 44°16' E 009°17'1 4.8
2017-Jul-22 04:01N 44°15' E 009°18'2 4.7
2017-Jul-22 03:31N 44°13' E 009°17'2 4.9
2017-Jul-22 03:01N 44°11' E 009°15'3 5.1
2017-Jul-22 02:31N 44°09' E 009°13'3 5.1
2017-Jul-22 02:01N 44°07' E 009°10'3 5.1
2017-Jul-22 01:31N 44°05' E 009°08'3 5.7
2017-Jul-22 01:01N 44°03' E 009°05'3 6.7
2017-Jul-22 00:31N 44°01' E 009°02'4 7.1
2017-Jul-22 00:01N 43°58' E 008°59'3 6.9
2017-Jul-21 23:30N 43°55' E 008°57'3 6.8
2017-Jul-21 23:01N 43°53' E 008°53'3 6.8
2017-Jul-21 22:31N 43°52' E 008°49'3 6.8
2017-Jul-21 22:00N 43°50' E 008°44'3 6.9
2017-Jul-21 21:30N 43°49' E 008°40'3 7.0
2017-Jul-21 21:01N 43°47' E 008°36'4 6.9
2017-Jul-21 20:30N 43°46' E 008°31'3 6.7
2017-Jul-21 20:00N 43°44' E 008°27'4 6.8
2017-Jul-21 19:29N 43°42' E 008°23'5 6.8
2017-Jul-21 18:41N 43°40' E 008°16'22 1.6
2017-Jul-21 04:56N 43°48' E 007°47'1411.0
2017-Jul-21 03:41N 43°41' E 008°04'4 8.4
2017-Jul-21 03:14N 43°38' E 008°07'2 7.8
2017-Jul-21 02:57N 43°36' E 008°08'9 6.8
2017-Jul-21 01:37N 43°28' E 008°01'1 7.2
2017-Jul-21 01:27N 43°28' E 007°60'3 7.4
2017-Jul-21 01:00N 43°28' E 007°55'4 7.3
2017-Jul-21 00:30N 43°28' E 007°50'4 7.2
2017-Jul-21 00:00N 43°28' E 007°45'4 7.1
2017-Jul-20 23:30N 43°28' E 007°41'4 8.1
2017-Jul-20 23:00N 43°32' E 007°37'4 8.1
2017-Jul-20 22:30N 43°35' E 007°34'5 8.2
2017-Jul-20 21:55N 43°39' E 007°31'4 8.9
2017-Jul-20 21:30N 43°42' E 007°28'3 0.8
2017-Jul-20 18:28N 43°44' E 007°26'6 0.4
2017-Jul-20 04:09N 43°39' E 007°24'1 7.0
2017-Jul-20 04:00N 43°38' E 007°23'3 7.0
2017-Jul-20 03:31N 43°35' E 007°20'4 7.1
2017-Jul-20 03:00N 43°32' E 007°17'3 7.0
2017-Jul-20 02:31N 43°30' E 007°13'3 6.8
2017-Jul-20 02:01N 43°27' E 007°10'4 7.0
2017-Jul-20 01:30N 43°25' E 007°07'4 7.4
2017-Jul-20 01:01N 43°22' E 007°04'4 7.2
2017-Jul-20 00:30N 43°19' E 007°01'4 7.2
2017-Jul-20 00:00N 43°16' E 006°58'4 7.4
2017-Jul-19 23:30N 43°13' E 006°55'14 7.4
2017-Jul-19 21:37N 43°02' E 006°43'1 7.4
2017-Jul-19 21:30N 43°02' E 006°42'4 7.2
2017-Jul-19 21:00N 42°59' E 006°39'3 7.1
2017-Jul-19 20:30N 42°56' E 006°37'3 6.7
2017-Jul-19 20:00N 42°54' E 006°33'4 7.1
2017-Jul-19 19:30N 42°54' E 006°28'3 6.9
2017-Jul-19 19:01N 42°53' E 006°23'4 7.7
2017-Jul-19 18:30N 42°53' E 006°18'610.4
2017-Jul-19 17:57N 42°53' E 006°10'611.6
2017-Jul-19 17:26N 42°54' E 006°02'811.2
2017-Jul-19 16:46N 42°57' E 005°52'311.2
2017-Jul-19 16:30N 42°57' E 005°49'510.9
2017-Jul-19 16:00N 43°01' E 005°43'510.4
2017-Jul-19 15:30N 43°06' E 005°46'2 2.8
2017-Jul-19 14:56N 43°06' E 005°48'0 0.0
2017-Jul-19 14:30N 43°06' E 005°48'0 0.0
2017-Jul-19 14:00N 43°06' E 005°48'0 0.1
2017-Jul-19 13:30N 43°06' E 005°48'0 0.0
2017-Jul-19 12:41N 43°06' E 005°48'0 0.0
2017-Jul-19 09:04N 43°06' E 005°48'0 0.0
2017-Jul-19 08:01N 43°06' E 005°48'0 0.0
2017-Jul-19 05:23N 43°06' E 005°48'1 1.8
2017-Jul-19 05:00N 43°06' E 005°47'611.6
2017-Jul-19 04:30N 43°05' E 005°39'714.1
2017-Jul-19 04:00N 43°02' E 005°30'713.8
2017-Jul-19 03:30N 43°00' E 005°21'713.7
2017-Jul-19 03:00N 42°59' E 005°12'713.2
2017-Jul-19 02:30N 42°59' E 005°03'713.8
2017-Jul-19 02:00N 43°02' E 004°54'713.6
2017-Jul-19 01:30N 43°04' E 004°45'713.5
2017-Jul-19 01:00N 43°06' E 004°37'713.8
2017-Jul-19 00:30N 43°08' E 004°28'713.8
2017-Jul-19 00:00N 43°10' E 004°19'713.6
2017-Jul-18 23:30N 43°13' E 004°10'813.7
2017-Jul-18 22:57N 43°15' E 003°60'613.5
2017-Jul-18 22:30N 43°17' E 003°52'612.5
2017-Jul-18 22:00N 43°22' E 003°47'4 7.3
2017-Jul-18 21:31N 43°24' E 003°42'0 0.8
2017-Jul-18 21:00N 43°24' E 003°42'0 0.0
2017-Jul-18 20:28N 43°24' E 003°42'0 0.0
2017-Jul-18 19:58N 43°24' E 003°42'0 0.0
2017-Jul-18 19:28N 43°24' E 003°42'0 0.0
2017-Jul-18 19:00N 43°24' E 003°42'0 0.0
2017-Jul-18 18:30N 43°24' E 003°42'0 0.0
2017-Jul-18 18:00N 43°24' E 003°42'0 0.0
2017-Jul-18 17:29N 43°24' E 003°42'0 0.0
2017-Jul-18 16:59N 43°24' E 003°42'0 0.0
2017-Jul-18 16:29N 43°24' E 003°42'0 0.0
2017-Jul-18 15:59N 43°24' E 003°42'0 0.0
2017-Jul-18 15:29N 43°24' E 003°42'0 0.0
2017-Jul-18 14:59N 43°24' E 003°42'0 0.0
2017-Jul-18 13:50N 43°24' E 003°42'0 0.0
2017-Jul-18 13:29N 43°24' E 003°42'0 0.0
2017-Jul-18 12:59N 43°24' E 003°42'0 0.0
2017-Jul-18 11:02N 43°24' E 003°42'3 0.5
2017-Jul-18 05:05N 43°23' E 003°46'1 7.4
2017-Jul-18 05:00N 43°23' E 003°46'6 7.4
2017-Jul-18 04:15N 43°18' E 003°51'7 6.2
2017-Jul-18 03:06N 43°12' E 003°54'2 6.7
2017-Jul-18 02:50N 43°10' E 003°54'12 6.7
2017-Jul-18 01:06N 42°58' E 003°53'2 6.7
2017-Jul-18 00:50N 42°57' E 003°54'26 7.0
2017-Jul-17 21:07N 42°31' E 003°48'2 7.4
2017-Jul-17 20:51N 42°29' E 003°48'13 7.4
2017-Jul-17 19:07N 42°16' E 003°46'2 7.1
2017-Jul-17 18:51N 42°14' E 003°46'4 9.8
2017-Jul-17 18:28N 42°11' E 003°43'611.2
2017-Jul-17 17:58N 42°11' E 003°36'510.8
2017-Jul-17 17:29N 42°11' E 003°28'510.3
2017-Jul-17 17:00N 42°11' E 003°22'7 0.5
2017-Jul-17 03:10N 42°05' E 003°19'2 6.9
2017-Jul-17 02:54N 42°03' E 003°20'12 7.2
2017-Jul-17 01:10N 41°51' E 003°26'2 7.8
2017-Jul-17 00:55N 41°49' E 003°26'12 6.9
2017-Jul-16 23:10N 41°38' E 003°21'2 7.9
2017-Jul-16 22:58N 41°37' E 003°19'8 8.1
2017-Jul-16 22:00N 41°32' E 003°11'7 8.0
2017-Jul-16 21:11N 41°28' E 003°05'3 7.8
2017-Jul-16 20:50N 41°26' E 003°02'4 7.9
2017-Jul-16 20:22N 41°24' E 002°57'3 7.4
2017-Jul-16 19:55N 41°22' E 002°54'3 7.2
2017-Jul-16 19:27N 41°19' E 002°52'3 7.2
2017-Jul-16 19:00N 41°19' E 002°47'3 7.0
2017-Jul-16 18:30N 41°19' E 002°43'510.1
2017-Jul-16 18:00N 41°18' E 002°36'611.6
2017-Jul-16 17:30N 41°18' E 002°28'611.2
2017-Jul-16 17:00N 41°17' E 002°21'510.3
2017-Jul-16 16:30N 41°19' E 002°14'4 8.0
2017-Jul-16 16:00N 41°22' E 002°11'  

Dump ship's entire track history